Flag for Canada Weather past 2 weeks in Newmarket, Ontario, Canada

Now
36 °F

Overcast.


Feels Like: 30 °F
Forecast: 33 / 60 °F
Wind: 7 mph from South

Location: Borden

Current Time: Apr 2, 2015 at 3:06:20 AM

Latest Report: Apr 2, 2015 at 2:00 AM


Visibility: 9 mi

Pressure: 30.06 "Hg

Humidity: 52%

Dew point: 19 °F

Location of NewmarketLocation

Historic Weather in Newmarket — Graph

°F

Newmarket temperature yesterday

Maximum temperature yesterday: 48 °F (at 3:00 PM)
Minimum temperature yesterday: 16 °F (at 6:00 AM)
Average temperature yesterday: 34 °F

Past Weeks' High & Low Weather Summary

 TemperatureHumidityPressure
High48 °F (Mar 20, 3:00 PM)100% (Mar 21, 5:00 AM)30.45 "Hg (Mar 21, 5:00 AM)
Low3 °F (Mar 24, 2:00 AM)21% (Mar 20, 4:00 PM)29.53 "Hg (Mar 30, 4:00 AM)
Average27 °F66%30.08 "Hg
* Reported Mar 18 2:00 AM — Apr 2 2:00 AM, Newmarket, Weather by CustomWeather, © 2015

Note: Actual official high and low records may vary slightly from our data, if they occured in-between our weather recording intervals... More about our weather records

Advertising

Newmarket weather history for previous 24 hours

 ConditionsComfort  
Time TempWeatherWind HumidityBarometerVisibility
2:00 AM
Thu, Apr 2
36 °FOvercast.7 mph52%30.06 "Hg9 mi
1:00 AM36 °FPassing clouds.7 mph52%30.10 "Hg9 mi
12:00 AM36 °FOvercast.7 mph52%30.11 "Hg9 mi
11:00 PM
Wed, Apr 1
36 °FPassing clouds.8 mph56%30.10 "Hg9 mi
10:00 PM36 °FClear.10 mph56%30.08 "Hg9 mi
9:00 PM37 °FClear.12 mph52%30.07 "Hg9 mi
8:00 PM39 °FSunny.10 mph39%30.09 "Hg9 mi
7:00 PM46 °FSunny.8 mph37%30.11 "Hg9 mi
6:00 PM48 °FSunny.8 mph34%30.11 "Hg9 mi
5:00 PM48 °FSunny.9 mph32%30.13 "Hg9 mi
4:00 PM48 °FSunny.5 mph27%30.14 "Hg9 mi
3:00 PM48 °FSunny.9 mph27%30.14 "Hg9 mi
2:00 PM45 °FSunny.2 mph27%30.16 "Hg9 mi
1:00 PM41 °FSunny.6 mph28%30.17 "Hg9 mi
12:00 PM41 °FSunny.7 mph28%30.17 "Hg9 mi
11:00 AM37 °FSunny.5 mph33%30.18 "Hg9 mi
10:00 AM36 °FSunny.5 mph35%30.17 "Hg9 mi
9:00 AM30 °FPartly sunny.3 mph64%30.17 "Hg9 mi
8:00 AM23 °FPassing clouds.2 mph86%30.16 "Hg9 mi
7:00 AM16 °FPassing clouds.2 mph93%30.12 "Hg9 mi
6:00 AM16 °FClear.No wind93%30.09 "Hg9 mi
5:00 AM18 °FPassing clouds.No wind86%30.07 "Hg9 mi
4:00 AM19 °FClear.No wind86%30.04 "Hg9 mi
3:00 AM25 °FClear.2 mph69%30.02 "Hg9 mi
Weather by CustomWeather, © 2015

See weather overviewHow to use our weather pages